WB4FAY-4 Weather Reports


Display with metric or nautical units.
time (UTC)temp
F
wind
direction
speed
MPH
gust
MPH
rain 1hr
in
rain 24hr
in
rain mn
in
humidity
%
barometer
mb
20171020141617 58 68 0.0 7.0 0.00 0.00 0.00 78 1025.7
20171020141117 58 72 4.0 8.0 0.00 0.00 0.00 79 1025.7
20171020140617 57 65 8.0 6.0 0.00 0.00 0.00 79 1025.7
20171020140117 57 85 1.0 6.0 0.00 0.00 0.00 80 1025.7
20171020135617 57 100 1.0 9.0 0.00 0.00 0.00 79 1025.7
20171020135117 57 85 7.0 10.0 0.00 0.00 0.00 80 1025.7
20171020134617 57 93 5.0 9.0 0.00 0.00 0.00 80 1025.7
20171020134117 56 69 3.0 8.0 0.00 0.00 0.00 81 1025.7
20171020133617 56 82 4.0 8.0 0.00 0.00 0.00 82 1025.7
20171020133117 56 86 4.0 8.0 0.00 0.00 0.00 82 1025.6
20171020132617 56 71 5.0 6.0 0.00 0.00 0.00 82 1025.6
20171020132117 56 85 3.0 9.0 0.00 0.00 0.00 82 1025.7
20171020131617 55 79 5.0 10.0 0.00 0.00 0.00 82 1025.6
20171020131117 55 76 4.0 10.0 0.00 0.00 0.00 82 1025.6
20171020130617 55 65 3.0 7.0 0.00 0.00 0.00 82 1025.6
20171020130117 55 79 6.0 8.0 0.00 0.00 0.00 82 1025.6
20171020125617 55 69 3.0 6.0 0.00 0.00 0.00 83 1025.5
20171020125117 54 95 3.0 5.0 0.00 0.00 0.00 83 1025.4
20171020124617 54 85 3.0 5.0 0.00 0.00 0.00 83 1025.3
20171020124117 54 93 3.0 6.0 0.00 0.00 0.00 84 1025.2
20171020123617 54 76 2.0 6.0 0.00 0.00 0.00 84 1025.3
20171020123117 54 86 2.0 6.0 0.00 0.00 0.00 84 1025.3
20171020122617 53 103 2.0 5.0 0.00 0.00 0.00 84 1025.2
20171020122117 54 80 2.0 6.0 0.00 0.00 0.00 84 1025.2
20171020121617 53 65 3.0 5.0 0.00 0.00 0.00 84 1025.2
20171020121117 53 80 2.0 6.0 0.00 0.00 0.00 84 1025.3
20171020120617 53 76 3.0 5.0 0.00 0.00 0.00 84 1025.2
20171020120117 53 82 3.0 5.0 0.00 0.00 0.00 85 1025.1
20171020115617 53 80 3.0 5.0 0.00 0.00 0.00 85 1025.1
20171020115117 53 93 3.0 6.0 0.00 0.00 0.00 85 1025.1
20171020114617 53 83 3.0 4.0 0.00 0.00 0.00 85 1025.0
20171020114117 53 83 4.0 6.0 0.00 0.00 0.00 86 1025.0
20171020113618 53 88 3.0 2.0 0.00 0.00 0.00 86 1025.0
20171020113118 53 83 1.0 6.0 0.00 0.00 0.00 86 1025.0
20171020112617 53 64 2.0 6.0 0.00 0.00 0.00 86 1025.0
20171020112117 53 66 2.0 4.0 0.00 0.00 0.00 86 1025.0
20171020111617 53 100 2.0 5.0 0.00 0.00 0.00 86 1024.9
20171020111117 53 79 2.0 3.0 0.00 0.00 0.00 86 1024.9
20171020110617 53 88 3.0 6.0 0.00 0.00 0.00 86 1024.9
20171020110117 53 102 2.0 3.0 0.00 0.00 0.00 86 1024.9
20171020105617 53 83 2.0 4.0 0.00 0.00 0.00 86 1024.9
20171020105117 53 0 1.0 0.0 0.00 0.00 0.00 86 1024.9
20171020104617 53 104 0.0 2.0 0.00 0.00 0.00 86 1024.9
20171020104117 53 89 1.0 2.0 0.00 0.00 0.00 86 1024.9
20171020103617 53 76 1.0 4.0 0.00 0.00 0.00 86 1024.7
20171020103117 53 93 1.0 5.0 0.00 0.00 0.00 86 1024.6
20171020102617 53 78 1.0 3.0 0.00 0.00 0.00 86 1024.6
20171020102117 53 104 0.0 3.0 0.00 0.00 0.00 86 1024.5
20171020101617 53 99 2.0 2.0 0.00 0.00 0.00 86 1024.5
20171020101118 53 78 0.0 2.0 0.00 0.00 0.00 86 1024.4
20171020100617 53 86 0.0 1.0 0.00 0.00 0.00 85 1024.4
20171020100117 53 110 0.0 2.0 0.00 0.00 0.00 86 1024.4
20171020095618 53 97 2.0 2.0 0.00 0.00 0.00 85 1024.3
20171020095117 53 75 0.0 3.0 0.00 0.00 0.00 85 1024.4
20171020094617 53 64 0.0 2.0 0.00 0.00 0.00 85 1024.4
20171020094118 54 64 0.0 2.0 0.00 0.00 0.00 85 1024.4
20171020093617 53 64 0.0 1.0 0.00 0.00 0.00 85 1024.4
20171020093117 53 100 0.0 2.0 0.00 0.00 0.00 85 1024.3
20171020092617 53 61 0.0 2.0 0.00 0.00 0.00 86 1024.3
20171020092117 53 79 1.0 2.0 0.00 0.00 0.00 86 1024.3
20171020091617 53 79 0.0 3.0 0.00 0.00 0.00 86 1024.3
20171020091117 53 92 2.0 2.0 0.00 0.00 0.00 86 1024.2
20171020090617 53 78 0.0 3.0 0.00 0.00 0.00 85 1024.2
20171020090117 53 99 1.0 2.0 0.00 0.00 0.00 85 1024.2
20171020085617 54 100 1.0 2.0 0.00 0.00 0.00 85 1024.3
20171020085117 54 96 2.0 3.0 0.00 0.00 0.00 84 1024.2
20171020084617 54 0 0.0 0.0 0.00 0.00 0.00 83 1024.3
20171020084117 55 0 0.0 0.0 0.00 0.00 0.00 83 1024.2
20171020083617 55 0 0.0 0.0 0.00 0.00 0.00 82 1024.3
20171020083117 55 0 0.0 0.0 0.00 0.00 0.00 82 1024.2
20171020082617 55 0 0.0 0.0 0.00 0.00 0.00 82 1024.0
20171020082117 55 0 0.0 0.0 0.00 0.00 0.00 82 1024.0
20171020081617 55 0 0.0 0.0 0.00 0.00 0.00 82 1024.0
20171020081117 55 0 0.0 0.0 0.00 0.00 0.00 81 1024.0
20171020080617 55 0 0.0 0.0 0.00 0.00 0.00 81 1024.0
20171020080117 55 114 0.0 3.0 0.00 0.00 0.00 81 1024.0
20171020075617 55 92 1.0 4.0 0.00 0.00 0.00 81 1024.0
20171020075117 55 95 1.0 4.0 0.00 0.00 0.00 80 1024.0
20171020074617 55 86 2.0 4.0 0.00 0.00 0.00 80 1024.0
20171020074117 55 93 1.0 4.0 0.00 0.00 0.00 80 1024.0
20171020073617 55 89 1.0 4.0 0.00 0.00 0.00 80 1024.0
20171020073117 55 75 2.0 4.0 0.00 0.00 0.00 80 1024.0
20171020072617 55 88 1.0 2.0 0.00 0.00 0.00 81 1024.0
20171020072117 55 97 0.0 2.0 0.00 0.00 0.00 80 1024.0
20171020071618 56 85 1.0 3.0 0.00 0.00 0.00 80 1024.0
20171020071117 56 130 0.0 2.0 0.00 0.00 0.00 80 1024.2
20171020070618 56 99 0.0 2.0 0.00 0.00 0.00 80 1024.0
20171020070117 56 104 2.0 2.0 0.00 0.00 0.00 81 1024.0
20171020065617 56 75 1.0 3.0 0.00 0.00 0.00 81 1024.0
20171020065117 55 90 1.0 4.0 0.00 0.00 0.00 80 1024.0
20171020064618 55 93 1.0 5.0 0.00 0.00 0.00 80 1024.0
20171020064117 55 102 2.0 3.0 0.00 0.00 0.00 81 1024.0
20171020063617 56 89 1.0 3.0 0.00 0.00 0.00 81 1024.0
20171020063117 56 92 1.0 5.0 0.00 0.00 0.00 80 1024.0
20171020062618 56 82 2.0 3.0 0.00 0.00 0.00 80 1024.0
20171020062117 56 100 0.0 2.0 0.00 0.00 0.00 80 1024.0
20171020061617 56 107 0.0 3.0 0.00 0.00 0.00 81 1024.0
20171020061117 56 95 0.0 1.0 0.00 0.00 0.00 81 1023.9
20171020060617 56 92 0.0 2.0 0.00 0.00 0.00 81 1023.9
20171020060117 55 88 0.0 3.0 0.00 0.00 0.00 81 1023.9
20171020055618 55 90 1.0 3.0 0.00 0.00 0.00 82 1023.8
20171020055119 55 88 1.0 4.0 0.00 0.00 0.00 82 1023.9
20171020054617 55 56 3.0 2.0 0.00 0.00 0.00 82 1024.0
20171020054117 55 73 0.0 3.0 0.00 0.00 0.00 83 1024.0
20171020053617 55 71 1.0 3.0 0.00 0.00 0.00 83 1024.0
20171020053117 55 83 1.0 2.0 0.00 0.00 0.00 83 1024.0
20171020052617 55 78 0.0 1.0 0.00 0.00 0.00 83 1024.2
20171020052118 55 89 0.0 4.0 0.00 0.00 0.00 83 1024.2
20171020051617 55 88 2.0 1.0 0.00 0.00 0.00 83 1024.2
20171020051117 55 82 1.0 3.0 0.00 0.00 0.00 83 1024.2
20171020050617 56 82 1.0 3.0 0.00 0.00 0.00 83 1024.2
20171020050117 56 0 1.0 0.0 0.00 0.00 0.00 82 1024.2
20171020045617 56 0 0.0 0.0 0.00 0.00 0.00 82 1024.2
20171020045117 56 78 0.0 1.0 0.00 0.00 0.00 81 1024.2
20171020044617 56 0 0.0 0.0 0.00 0.00 0.00 81 1024.2
20171020044117 56 73 0.0 1.0 0.00 0.00 0.00 81 1024.2
20171020043617 56 79 0.0 1.0 0.00 0.00 0.00 81 1024.3
20171020043117 56 75 0.0 2.0 0.00 0.00 0.00 81 1024.3
20171020042617 57 68 0.0 2.0 0.00 0.00 0.00 81 1024.3
20171020042117 57 76 1.0 2.0 0.00 0.00 0.00 81 1024.2
20171020041617 57 0 1.0 0.0 0.00 0.00 0.00 80 1024.2
20171020041117 57 85 0.0 2.0 0.00 0.00 0.00 81 1024.2
20171020040617 57 65 1.0 3.0 0.00 0.00 0.00 81 1024.3
20171020040117 57 79 1.0 2.0 0.00 0.00 0.00 81 1024.3
20171020035617 57 88 1.0 3.0 0.00 0.00 0.00 82 1024.3
20171020035117 57 0 0.0 0.0 0.00 0.00 0.00 82 1024.3
20171020034618 57 0 0.0 0.0 0.00 0.00 0.00 81 1024.3
20171020034117 57 0 0.0 0.0 0.00 0.00 0.00 81 1024.4
20171020033617 57 0 0.0 0.0 0.00 0.00 0.00 81 1024.4
20171020033117 57 0 0.0 0.0 0.00 0.00 0.00 81 1024.3
20171020032617 57 0 0.0 0.0 0.00 0.00 0.00 81 1024.4
20171020032117 57 0 0.0 0.0 0.00 0.00 0.00 80 1024.3
20171020031617 57 0 0.0 0.0 0.00 0.00 0.00 80 1024.3
20171020031118 57 0 0.0 0.0 0.00 0.00 0.00 80 1024.3
20171020030617 57 0 0.0 0.0 0.00 0.00 0.00 80 1024.3
20171020030117 57 0 0.0 0.0 0.00 0.00 0.00 81 1024.3
20171020025617 57 0 0.0 0.0 0.00 0.00 0.00 81 1024.3
20171020025117 57 0 0.0 0.0 0.00 0.00 0.00 81 1024.3
20171020024617 57 0 0.0 0.0 0.00 0.00 0.00 81 1024.3
20171020024118 58 0 0.0 0.0 0.00 0.00 0.00 82 1024.3
20171020023617 58 0 0.0 0.0 0.00 0.00 0.00 82 1024.2
20171020023117 58 0 0.0 0.0 0.00 0.00 0.00 82 1024.2
20171020022617 58 0 0.0 0.0 0.00 0.00 0.00 82 1024.2
20171020022117 58 0 0.0 0.0 0.00 0.00 0.00 82 1024.2
20171020021617 58 0 0.0 0.0 0.00 0.00 0.00 82 1024.0
20171020021117 58 0 0.0 0.0 0.00 0.00 0.00 83 1024.0
20171020020617 58 0 0.0 0.0 0.00 0.00 0.00 83 1023.9
20171020020117 58 0 0.0 0.0 0.00 0.00 0.00 83 1023.9
20171020015619 58 0 0.0 0.0 0.00 0.00 0.00 83 1023.9
20171020015118 59 0 0.0 0.0 0.00 0.00 0.00 83 1024.0
20171020014618 59 0 0.0 0.0 0.00 0.00 0.00 83 1023.9
20171020014117 59 0 0.0 0.0 0.00 0.00 0.00 83 1023.9
20171020013617 59 0 0.0 0.0 0.00 0.00 0.00 82 1023.8
20171020013117 59 0 0.0 0.0 0.00 0.00 0.00 81 1023.8
20171020012617 59 0 0.0 0.0 0.00 0.00 0.00 81 1023.8
20171020012117 59 0 0.0 0.0 0.00 0.00 0.00 81 1023.8
20171020011617 60 0 0.0 0.0 0.00 0.00 0.00 80 1023.7
20171020011117 60 0 0.0 0.0 0.00 0.00 0.00 80 1023.8
20171020010617 60 0 0.0 0.0 0.00 0.00 0.00 81 1023.8
20171020010117 60 0 0.0 0.0 0.00 0.00 0.00 81 1023.8
20171020005617 60 0 0.0 0.0 0.00 0.00 0.00 81 1023.8
20171020005118 61 0 0.0 0.0 0.00 0.00 0.00 81 1023.8
20171020004617 61 0 0.0 0.0 0.00 0.00 0.00 80 1023.8
20171020004117 61 0 0.0 0.0 0.00 0.00 0.00 79 1023.7
20171020003617 61 0 0.0 0.0 0.00 0.00 0.00 79 1023.8
20171020003117 61 0 0.0 0.0 0.00 0.00 0.00 79 1023.8
20171020002617 62 0 0.0 0.0 0.00 0.00 0.00 78 1023.7
20171020002117 62 0 0.0 0.0 0.00 0.00 0.00 77 1023.7
20171020001617 62 0 0.0 0.0 0.00 0.00 0.00 77 1023.7
20171020001117 62 0 0.0 0.0 0.00 0.00 0.00 77 1023.7
20171020000617 63 0 0.0 0.0 0.00 0.00 0.00 76 1023.7
20171020000117 63 0 0.0 0.0 0.00 0.00 0.00 76 1023.7
20171019235617 63 0 0.0 0.0 0.00 0.00 0.00 75 1023.7
20171019235118 64 0 0.0 0.0 0.00 0.00 0.00 74 1023.6
20171019234617 64 0 0.0 0.0 0.00 0.00 0.00 73 1023.5
20171019234117 64 0 0.0 0.0 0.00 0.00 0.00 73 1023.5
20171019233617 65 0 0.0 0.0 0.00 0.00 0.00 71 1023.5
20171019233117 65 0 0.0 0.0 0.00 0.00 0.00 70 1023.4
20171019232617 65 0 0.0 0.0 0.00 0.00 0.00 70 1023.4
20171019232117 66 0 0.0 0.0 0.00 0.00 0.00 69 1023.4
20171019231617 66 0 0.0 0.0 0.00 0.00 0.00 68 1023.4
20171019231117 67 0 0.0 0.0 0.00 0.00 0.00 67 1023.4
20171019230617 67 0 0.0 0.0 0.00 0.00 0.00 66 1023.4
20171019230117 68 0 0.0 0.0 0.00 0.00 0.00 65 1023.3
20171019225617 68 0 0.0 0.0 0.00 0.00 0.00 65 1023.3
20171019225117 69 0 0.0 0.0 0.00 0.00 0.00 64 1023.3
20171019224618 69 0 0.0 0.0 0.00 0.00 0.00 63 1023.3
20171019224117 70 0 0.0 0.0 0.00 0.00 0.00 62 1023.2
20171019223617 70 0 0.0 0.0 0.00 0.00 0.00 61 1023.2
20171019223117 70 0 0.0 0.0 0.00 0.00 0.00 60 1023.2
20171019222617 71 0 0.0 0.0 0.00 0.00 0.00 59 1023.2
20171019222117 71 0 0.0 0.0 0.00 0.00 0.00 57 1023.2
20171019221617 72 0 0.0 0.0 0.00 0.00 0.00 55 1023.1
20171019221118 72 47 0.0 1.0 0.00 0.00 0.00 54 1023.1
20171019220617 72 0 0.0 0.0 0.00 0.00 0.00 53 1023.1
20171019220117 73 0 0.0 0.0 0.00 0.00 0.00 52 1023.1
20171019215617 73 86 0.0 5.0 0.00 0.00 0.00 50 1023.1
20171019215117 73 0 0.0 0.0 0.00 0.00 0.00 49 1023.1
20171019214617 74 0 0.0 0.0 0.00 0.00 0.00 49 1023.1
20171019214117 74 0 0.0 0.0 0.00 0.00 0.00 48 1023.1
20171019213617 75 61 0.0 2.0 0.00 0.00 0.00 46 1023.1
20171019213117 75 64 0.0 6.0 0.00 0.00 0.00 45 1023.2
20171019212618 75 305 3.0 1.0 0.00 0.00 0.00 44 1023.1
20171019212117 75 28 0.0 4.0 0.00 0.00 0.00 43 1023.2
20171019211617 76 76 0.0 4.0 0.00 0.00 0.00 44 1023.2
20171019211117 75 0 0.0 0.0 0.00 0.00 0.00 46 1023.2
20171019210617 75 20 0.0 1.0 0.00 0.00 0.00 46 1023.2
20171019210117 75 30 0.0 5.0 0.00 0.00 0.00 46 1023.2
20171019205617 75 352 0.0 3.0 0.00 0.00 0.00 46 1023.2
20171019205118 75 85 0.0 7.0 0.00 0.00 0.00 45 1023.2
20171019204617 74 52 0.0 2.0 0.00 0.00 0.00 47 1023.2
20171019204117 74 65 0.0 4.0 0.00 0.00 0.00 47 1023.3
20171019203617 74 0 0.0 0.0 0.00 0.00 0.00 47 1023.4
20171019203117 74 3 0.0 5.0 0.00 0.00 0.00 46 1023.4
20171019202617 74 356 4.0 3.0 0.00 0.00 0.00 45 1023.4
20171019202117 74 343 0.0 2.0 0.00 0.00 0.00 46 1023.4
20171019201617 74 0 0.0 0.0 0.00 0.00 0.00 45 1023.4
20171019201117 75 0 0.0 0.0 0.00 0.00 0.00 46 1023.4
20171019200617 75 1 0.0 3.0 0.00 0.00 0.00 45 1023.4
20171019200117 75 45 0.0 5.0 0.00 0.00 0.00 44 1023.5
20171019195617 75 18 0.0 3.0 0.00 0.00 0.00 44 1023.5
20171019195117 75 45 2.0 3.0 0.00 0.00 0.00 44 1023.6
20171019194617 75 40 0.0 1.0 0.00 0.00 0.00 44 1023.6
20171019194118 75 59 0.0 2.0 0.00 0.00 0.00 45 1023.6
20171019193618 75 64 1.0 5.0 0.00 0.00 0.00 42 1023.6
20171019193117 75 88 1.0 5.0 0.00 0.00 0.00 42 1023.7
20171019192617 75 89 0.0 6.0 0.00 0.00 0.00 44 1023.8
20171019192117 74 356 0.0 3.0 0.00 0.00 0.00 44 1023.8
20171019191617 74 127 0.0 3.0 0.00 0.00 0.00 45 1023.9
20171019191117 73 52 0.0 0.0 0.00 0.00 0.00 47 1023.9
20171019190617 73 79 0.0 2.0 0.00 0.00 0.00 45 1024.0
20171019190117 73 95 0.0 3.0 0.00 0.00 0.00 45 1024.0
20171019185617 73 78 0.0 5.0 0.00 0.00 0.00 47 1024.0
20171019185117 73 121 0.0 2.0 0.00 0.00 0.00 47 1024.0
20171019184617 72 92 0.0 3.0 0.00 0.00 0.00 46 1024.2
20171019184117 72 0 0.0 0.0 0.00 0.00 0.00 47 1024.3
20171019183617 72 75 0.0 4.0 0.00 0.00 0.00 48 1024.3
20171019183117 72 0 1.0 0.0 0.00 0.00 0.00 49 1024.4
20171019182617 72 59 0.0 3.0 0.00 0.00 0.00 48 1024.5
20171019182117 72 40 1.0 5.0 0.00 0.00 0.00 49 1024.7
20171019181617 72 61 1.0 4.0 0.00 0.00 0.00 49 1024.8
20171019181117 72 356 2.0 7.0 0.00 0.00 0.00 50 1024.9
20171019180617 72 354 0.0 4.0 0.00 0.00 0.00 51 1024.9
20171019180118 72 0 0.0 0.0 0.00 0.00 0.00 50 1025.0
20171019175617 71 76 0.0 6.0 0.00 0.00 0.00 49 1025.2
20171019175117 71 124 1.0 4.0 0.00 0.00 0.00 51 1025.2
20171019174617 71 1 0.0 4.0 0.00 0.00 0.00 51 1025.3
20171019174117 70 14 0.0 3.0 0.00 0.00 0.00 53 1025.3
20171019173617 70 0 1.0 0.0 0.00 0.00 0.00 55 1025.4
20171019173117 70 0 0.0 0.0 0.00 0.00 0.00 55 1025.5
20171019172617 70 0 0.0 0.0 0.00 0.00 0.00 54 1025.6
20171019172117 69 329 0.0 2.0 0.00 0.00 0.00 55 1025.7
20171019171617 70 55 1.0 3.0 0.00 0.00 0.00 55 1025.8
20171019171117 69 75 0.0 5.0 0.00 0.00 0.00 56 1025.9
20171019170617 69 352 0.0 5.0 0.00 0.00 0.00 55 1025.9
20171019170117 69 0 0.0 0.0 0.00 0.00 0.00 58 1026.0
20171019165617 68 0 0.0 0.0 0.00 0.00 0.00 58 1026.0
20171019165118 68 31 0.0 3.0 0.00 0.00 0.00 58 1026.1
20171019164617 68 75 0.0 4.0 0.00 0.00 0.00 58 1026.2
20171019164117 68 0 1.0 0.0 0.00 0.00 0.00 60 1026.2
20171019163617 67 20 0.0 1.0 0.00 0.00 0.00 61 1026.3
20171019163117 67 0 0.0 0.0 0.00 0.00 0.00 62 1026.3
20171019162617 67 71 0.0 4.0 0.00 0.00 0.00 63 1026.3
20171019162117 66 0 0.0 0.0 0.00 0.00 0.00 63 1026.4
20171019161617 66 78 0.0 2.0 0.00 0.00 0.00 63 1026.5
20171019161117 66 83 0.0 4.0 0.00 0.00 0.00 64 1026.6
20171019160617 65 0 0.0 0.0 0.00 0.00 0.00 64 1026.6
20171019160117 65 0 0.0 0.0 0.00 0.00 0.00 64 1026.7
20171019155617 65 59 0.0 5.0 0.00 0.00 0.00 64 1026.7
20171019155117 65 260 0.0 1.0 0.00 0.00 0.00 65 1026.8
20171019154617 64 75 0.0 2.0 0.00 0.00 0.00 64 1026.8
20171019154117 63 83 0.0 5.0 0.00 0.00 0.00 65 1026.7
20171019153617 63 76 2.0 4.0 0.00 0.00 0.00 66 1026.7
20171019153117 63 62 1.0 1.0 0.00 0.00 0.00 68 1026.7
20171019152617 62 0 0.0 0.0 0.00 0.00 0.00 69 1026.7
20171019152117 62 0 0.0 0.0 0.00 0.00 0.00 69 1026.8
20171019151617 61 82 0.0 6.0 0.00 0.00 0.00 69 1026.8
20171019151117 61 0 6.0 0.0 0.00 0.00 0.00 70 1026.9
20171019150617 60 92 0.0 5.0 0.00 0.00 0.00 70 1026.9
20171019150117 60 90 0.0 6.0 0.00 0.00 0.00 70 1026.9
20171019145617 59 73 0.0 5.0 0.00 0.00 0.00 71 1026.9
20171019145117 59 0 2.0 0.0 0.00 0.00 0.00 73 1026.9
20171019144618 58 76 0.0 5.0 0.00 0.00 0.00 73 1026.8
20171019144117 58 79 1.0 5.0 0.00 0.00 0.00 73 1026.8
20171019143617 58 79 1.0 6.0 0.00 0.00 0.00 73 1026.7
20171019143117 57 78 2.0 5.0 0.00 0.00 0.00 74 1026.7
20171019142617 57 86 1.0 5.0 0.00 0.00 0.00 74 1026.6
20171019142117 57 104 0.0 4.0 0.00 0.00 0.00 75 1026.6